星链-34196 (STARLINK-34196)

导读

STARLINK-34196是美国SpaceX星链星座的卫星,于2025年8月27日发射升空,属于美国推进星链互联网星座组网的发射任务之一。星链计划旨在通过低轨卫星群实现全球高速互联网覆盖,该卫星入轨后将进一步扩展星链系统的服务覆盖范围与容量。

Basic Information
目录编号:
65324
目录名称:
STARLINK-34196
国际标识:
2025-189B
轨道中心:
EARTH
卫星名称:
星链-34196
卫星全名:
星链-34196 (STARLINK-34196)
卫星状态:
在轨 (已飞行373 天)
发射日期:
2025-08-27 UTC
国别 :
美国 (US)
星等 :
--
Orbit Information
数据来源 国际轨道数据
星历时间: 2026-09-04T04:00:02+0800
8小时前
查看轨道信息
半长轴: 6848.846km
偏心率: 0.000143
轨道倾角: 53.158°
近地点辐角 84.092°
升交点赤经 97.738°
平近点角 260.238°
近地点: 469.729km
远地点: 471.689km
周期: 94.013分钟
每日圈数: 15.317105
Detailed Information
固有亮度:
5
最大亮度:
2.5
卫星平台:
Starlink V1.0
覆盖范围:
全球
运营商:
太空探索技术公司
运营商所在国:
美国
制造商(研发单位):
太空探索技术公司
制造商所在国:
美国
使用方式:
暂无
Satellite Introduction
Starlink 计划是 SpaceX 推出的全球卫星互联网项目,通过发射低轨道卫星,为全球尤其是偏远地区提供高速、低延迟的互联网服务。自 2019 年起,Starlink 已部署数千颗卫星,旨在缩小全球数字鸿沟,推动互联网普及。该项目还为军事、航空等行业提供通信支持,带来广泛经济效益。
2D Orbit Map
3D Orbit Map
Orbit Altitude Analysis Chart
Orbit Inclination Analysis Chart
Orbit Comprehensive Analysis Chart
View Comprehensive Chart
Conjunction Data List
Event ID Objects TCA Miss Dist (km) Collision Risk Probability Collision Risk Index (CRI) Action
CDM_260901-062406-532406-535021
2026-09-01T
06:24:11+0000
0.107 km
中距离
5.62461E-4 高风险 0.9
CDM_260827-223006-041406-532421
2026-08-27T
22:30:25+0000
1.258 km
极远距离
4.812193E-6 低风险 0.49
CDM_260905-142306-532406-930321
2026-09-05T
14:23:04+0000
2.556 km
极远距离
1.68543E-6 低风险 0.4
CDM_260904-180604-002406-532421
2026-09-04T
18:06:36+0000
2.831 km
极远距离
1.43666E-6 低风险 0.38
CDM_260903-090706-532406-877121
2026-09-03T
09:07:33+0000
2.858 km
极远距离
1.421574E-6 低风险 0.38
CDM_260904-101006-532406-934821
2026-09-04T
10:10:26+0000
2.862 km
极远距离
1.419065E-6 低风险 0.38
CDM_260830-145406-532406-971622
2026-08-30T
14:54:51+0000
2.879 km
极远距离
1.399773E-6 低风险 0.38
CDM_260905-044705-305206-532421
2026-09-05T
04:47:37+0000
2.237 km
极远距离
1.348594E-6 低风险 0.38
CDM_260827-192604-791906-532421
2026-08-27T
19:26:00+0000
2.491 km
极远距离
1.173699E-6 低风险 0.36
CDM_260901-071606-532406-535021
2026-09-01T
07:16:37+0000
2.263 km
极远距离
3.069729E-7 极低风险 0.25